Location: Musselshell
(46.5176°N, 108.0911°W)
Time: 11:13:42
(UTC+00:00)

EO-88 - Pass Details

Date: 02 July 2022
Orbit: 453 x 462 km, 97.3° (Epoch: 10 August)

Event Time Altitude Azimuth Distance (km) Brightness Sun altitude
Exits shadow 04:09:25 12° 143° (SE) 1,522 ? -8.6°
Maximum altitude 04:12:29 43° 72° (ENE) 676 ? -9.0°
Drops below altitude 10° 04:15:49 10° 1° (N) 1,636 ? -9.4°
Sets 04:17:56 0° 354° (N) 2,516 ? -9.6°
